Location: ?????????
(41.2393°N, 22.9479°E)
Time: 05:13:18
(UTC+00:00)

SJ 16-02 - Pass Details

Date: 17 November 2025
Orbit: 585 x 594 km, 75.0° (Epoch: 09 December)

Event Time Altitude Azimuth Distance (km) Brightness Sun altitude
Rises 16:29:38 0° 188° (S) 2,819 5.0 -15.5°
Reaches altitude 10° 16:31:52 10° 185° (S) 1,922 4.1 -15.9°
Maximum altitude 16:36:06 62° 105° (ESE) 671 1.2 -16.7°
Enters shadow 16:38:52 21° 29° (NNE) 1,362 2.7 -17.2°
